Flag for U.S.A. Weather past 2 weeks in Kalispell, Montana, U.S.A.

Now
25 °F

Ice fog.


Feels Like: 25 °F
Forecast: 20 / 33 °F
Wind: No wind

Location: Kalispell - Glacier Park International

Current Time: Jan 31, 2015 at 4:12:18 AM

Latest Report: Jan 31, 2015 at 3:55 AM


Visibility: 1 mi

Pressure: 30.23 "Hg

Humidity: 100%

Dew point: 25 °F

Location of KalispellLocation

Historic Weather in Kalispell — Graph

°F

Kalispell temperature yesterday

Maximum temperature yesterday: 26 °F (at 6:55 PM)
Minimum temperature yesterday: 9 °F (at 4:55 AM)
Average temperature yesterday: 19 °F

Past Weeks' High & Low Weather Summary

 TemperatureHumidityPressure
High45 °F (Jan 24, 12:55 PM)100% (Jan 16, 3:55 AM)30.60 "Hg (Jan 16, 3:55 AM)
Low2 °F (Jan 21, 7:55 AM)57% (Jan 18, 4:55 PM)29.82 "Hg (Jan 18, 5:04 AM)
Average26 °F88%30.28 "Hg
* Reported Jan 16 2:55 AM — Jan 31 2:55 AM, Kalispell, Weather by CustomWeather, © 2014

Note: Actual official high and low records may vary slightly from our data, if they occured in-between our weather recording intervals... More about our weather records

Advertising

Kalispell weather history for previous 24 hours

 ConditionsComfort  
Time TempWeatherWind HumidityBarometerVisibility
2:55 AM
Jan 31
25 °FIce fog.No wind96%30.23 "Hg1 mi
1:55 AM25 °FIce fog.No wind96%30.24 "Hg1 mi
12:55 AM25 °FIce fog.No wind92%30.25 "Hg1 mi
11:55 PM
Jan 30
24 °FIce fog.No wind96%30.27 "Hg1 mi
10:55 PM23 °FIce fog.5 mph96%30.28 "Hg1 mi
9:55 PM23 °FIce fog.5 mph96%30.29 "Hg1 mi
9:04 PM24 °FIce fog.5 mph96%30.19 "Hg0 mi
7:55 PM25 °FIce fog.5 mph96%30.33 "Hg1 mi
7:02 PM25 °FIce fog.No wind96%30.22 "Hg1 mi
6:55 PM26 °FIce fog.No wind96%30.35 "Hg0 mi
5:55 PM25 °FIce fog.3 mph92%30.37 "Hg0 mi
4:55 PM24 °FIce fog.5 mph100%30.38 "Hg0 mi
3:55 PM22 °FIce fog.6 mph92%30.40 "Hg0 mi
3:04 PM23 °FIce fog.6 mph92%30.27 "Hg1 mi
2:02 PM24 °FIce fog.5 mph96%30.29 "Hg4 mi
12:55 PM24 °FIce fog.No wind96%30.47 "Hg1 mi
11:55 AM23 °FIce fog.No wind100%30.49 "Hg0 mi
10:55 AM20 °FIce fog.No wind100%30.51 "Hg1 mi
9:55 AM18 °FIce fog.No wind92%30.52 "Hg3 mi
9:04 AM15 °FIce fog.No wind95%30.37 "Hg0 mi
8:55 AM15 °FIce fog.No wind91%30.52 "Hg0 mi
7:55 AM13 °FIce fog.No wind92%30.52 "Hg0 mi
6:55 AM11 °FIce fog.No wind92%30.52 "Hg0 mi
5:55 AM10 °FIce fog.No wind92%30.50 "Hg0 mi
4:55 AM9 °FIce fog.No wind91%30.49 "Hg1 mi
4:02 AM10 °FIce fog.No wind92%30.36 "Hg1 mi
Weather by CustomWeather, © 2014

See weather overviewHow to use our weather pages